Change the Weather History Date:

Saturday, January 19, 2013

  Actual Average Record
Temperature  
Mean Temperature 7 °F -  
Max Temperature 21 °F 13 °F 33 °F (1997)
Min Temperature -7 °F -2 °F -29 °F (2004)
Degree Days  
Heating Degree Days 58    
Moisture  
Dew Point 6 °F    
Average Humidity 89    
Maximum Humidity 100    
Minimum Humidity 78    
Precipitation  
Precipitation 0.15 in - - ()
Sea Level Pressure  
Sea Level Pressure 29.77 in    
Wind  
Wind Speed 4 mph (NW)    
Max Wind Speed 17 mph    
Max Gust Speed 26 mph    
Visibility 4 miles    
Events Snow    
Averages and records for this station are not official NWS values.
T = Trace of Precipitation, MM = Missing Value Source: NWS Daily Summary

Daily Weather History Graph

Daily Weather History Graph

Search for Another Location

Airport or City:

Trip Planner

Search our weather history database for the weather conditions in past years. The results will help you decide how hot, cold, wet, or windy it might be!

Date:

Astronomy

Jan. 19, 2013 Rise Set
Actual Time 7:52 AM CST 4:49 PM CST
Civil Twilight 7:17 AM CST 5:24 PM CST
Nautical Twilight 6:39 AM CST 6:02 PM CST
Astronomical Twilight 6:02 AM CST 6:40 PM CST
Moon 11:21 AM CST (1/19) 1:20 AM CST (1/19)
Length of Visible Light 10h 06m
Length of Day
8h 57m
First Quarter, 57% of the Moon is Illuminated
Jan 19
First Quarter
Jan 26
Full
Feb 3
Last Quarter
Feb 10
New
Feb 17
First Quarter

Hourly Weather History & Observations

Time (CST) Temp. Windchill Dew Point Humidity Pressure Visibility Wind Dir Wind Speed Gust Speed Precip Events Conditions
12:14 AM 12.2 °F - 10.4 °F 92% 29.74 in 10.0 mi Calm Calm - N/A   Overcast
12:34 AM 12.2 °F - 10.4 °F 92% 29.73 in 10.0 mi Calm Calm - N/A   Overcast
12:54 AM 12.2 °F - 10.4 °F 92% 29.73 in 7.0 mi Calm Calm - N/A   Overcast
1:14 AM 12.2 °F - 10.4 °F 92% 29.72 in 7.0 mi Calm Calm - N/A Snow Light Snow
1:34 AM 12.2 °F - 10.4 °F 92% 29.71 in 4.0 mi Calm Calm - N/A Snow Light Snow
1:54 AM 12.2 °F - 10.4 °F 92% 29.71 in 1.8 mi Calm Calm - N/A Snow Light Snow
2:14 AM 14.0 °F - 10.4 °F 86% 29.71 in 4.0 mi Calm Calm - N/A Snow Light Snow
2:34 AM 14.0 °F - 12.2 °F 93% 29.70 in 3.0 mi Calm Calm - N/A Snow Light Snow
2:54 AM 14.0 °F - 12.2 °F 93% 29.71 in 2.0 mi Calm Calm - N/A Snow Light Snow
3:14 AM 15.8 °F - 12.2 °F 86% 29.70 in 1.8 mi Calm Calm - N/A Snow Light Snow
3:34 AM 15.8 °F - 12.2 °F 86% 29.68 in 1.0 mi Calm Calm - 0.01 in Snow Light Snow
3:54 AM 15.8 °F - 12.2 °F 86% 29.67 in 3.0 mi Calm Calm - 0.01 in Snow Light Snow
4:14 AM 15.8 °F - 12.2 °F 86% 29.66 in 0.8 mi Calm Calm - N/A Snow Light Snow
4:34 AM 15.8 °F - 12.2 °F 86% 29.64 in 1.0 mi Calm Calm - 0.01 in Snow Light Snow
4:54 AM 15.8 °F - 14.0 °F 93% 29.63 in 1.0 mi Calm Calm - 0.01 in Snow Light Snow
5:14 AM 15.8 °F - 14.0 °F 93% 29.61 in 0.8 mi Calm Calm - N/A Snow Light Snow
5:34 AM 15.8 °F - 14.0 °F 93% 29.60 in 0.5 mi Calm Calm - 0.01 in Snow Light Snow
5:54 AM 15.8 °F - 14.0 °F 93% 29.60 in 0.2 mi Calm Calm - 0.01 in Snow Heavy Snow
6:14 AM 15.8 °F - 14.0 °F 93% 29.59 in 0.2 mi Calm Calm - N/A Snow Heavy Snow
6:34 AM 15.8 °F - 15.8 °F 100% 29.59 in 1.2 mi Calm Calm - N/A Snow Light Snow
6:54 AM 17.6 °F - 15.8 °F 93% 29.59 in 4.0 mi Calm Calm - 0.05 in Snow Light Snow
7:14 AM 17.6 °F - 15.8 °F 93% 29.58 in 10.0 mi Calm Calm - 0.03 in   Overcast
7:34 AM 17.6 °F - 15.8 °F 93% 29.57 in 10.0 mi Calm Calm - 0.05 in   Overcast
7:54 AM 17.6 °F - 15.8 °F 93% 29.57 in 10.0 mi Calm Calm - 0.06 in   Overcast
8:14 AM 17.6 °F - 15.8 °F 93% 29.56 in 5.0 mi Calm Calm - 0.01 in   Overcast
8:34 AM 19.4 °F 14.3 °F 17.6 °F 93% 29.57 in 2.5 mi South 3.5 mph - 0.01 in   Overcast
8:54 AM 19.4 °F - 17.6 °F 93% 29.56 in 1.5 mi Calm Calm - 0.01 in Snow Light Snow
9:34 AM 21.2 °F 16.4 °F 19.4 °F 93% 29.57 in 2.0 mi SW 3.5 mph - N/A   Overcast
9:54 AM 21.2 °F 16.4 °F 19.4 °F 93% 29.57 in 1.5 mi WSW 3.5 mph - N/A Snow Light Snow
10:14 AM 21.2 °F 14.9 °F 19.4 °F 93% 29.56 in 2.5 mi NW 4.6 mph - N/A Snow Light Snow
10:34 AM 19.4 °F 11.5 °F 17.6 °F 93% 29.58 in 2.5 mi WNW 5.8 mph - N/A Snow Light Snow
10:54 AM 19.4 °F 11.5 °F 17.6 °F 93% 29.59 in 3.0 mi WNW 5.8 mph - N/A Snow Light Snow
11:14 AM 17.6 °F 9.3 °F 15.8 °F 93% 29.59 in 1.5 mi WNW 5.8 mph - N/A Snow Light Snow
11:34 AM 17.6 °F 8.2 °F 15.8 °F 93% 29.59 in 1.2 mi NW 6.9 mph - N/A Snow Light Snow
11:54 AM 17.6 °F 7.3 °F 15.8 °F 93% 29.60 in 1.8 mi NW 8.1 mph - N/A Snow Light Snow
12:14 PM 15.8 °F 3.4 °F 14.0 °F 93% 29.59 in 1.8 mi NW 10.4 mph 16.1 mph N/A Snow Light Snow
12:34 PM 15.8 °F 4.2 °F 12.2 °F 86% 29.61 in 4.0 mi WNW 9.2 mph 20.7 mph N/A Snow Light Snow
12:54 PM 14.0 °F 3.9 °F 12.2 °F 93% 29.62 in 1.8 mi West 6.9 mph 19.6 mph N/A Snow Light Snow
1:14 PM 12.2 °F -1.0 °F 10.4 °F 92% 29.63 in 1.2 mi NW 10.4 mph 21.9 mph N/A Snow Light Snow
1:34 PM 10.4 °F -4.1 °F 8.6 °F 92% 29.65 in 1.2 mi NW 11.5 mph 21.9 mph N/A Snow Light Snow
1:54 PM 10.4 °F -2.4 °F 8.6 °F 92% 29.66 in 1.8 mi NW 9.2 mph 16.1 mph N/A Snow Light Snow
2:14 PM 10.4 °F -4.8 °F 6.8 °F 85% 29.67 in 1.2 mi NW 12.7 mph 21.9 mph N/A Snow Light Snow
2:34 PM 8.6 °F -7.0 °F 6.8 °F 92% 29.69 in 0.8 mi NW 12.7 mph 18.4 mph N/A Snow Light Snow
2:54 PM 8.6 °F -9.5 °F 5.0 °F 85% 29.71 in 1.5 mi NW 17.3 mph 26.5 mph N/A Snow Light Snow
3:14 PM 6.8 °F -9.3 °F 3.2 °F 85% 29.73 in 1.8 mi NW 12.7 mph 20.7 mph N/A Snow Light Snow
3:34 PM 6.8 °F -10.0 °F 3.2 °F 85% 29.75 in 1.0 mi NW 13.8 mph 23.0 mph N/A Snow Light Snow
3:54 PM 3.2 °F -16.5 °F 1.4 °F 92% 29.78 in 1.5 mi NW 17.3 mph 26.5 mph N/A Snow Light Snow
4:14 PM 3.2 °F -15.3 °F -0.4 °F 85% 29.80 in 2.5 mi NW 15.0 mph 23.0 mph N/A   Overcast
4:34 PM 3.2 °F -13.9 °F -0.4 °F 85% 29.83 in 2.0 mi NNW 12.7 mph 23.0 mph N/A   Overcast
4:54 PM 1.4 °F -16.9 °F -2.2 °F 85% 29.85 in 7.0 mi NNW 13.8 mph 19.6 mph N/A   Overcast
5:14 PM 1.4 °F -16.1 °F -2.2 °F 85% 29.87 in 5.0 mi NNW 12.7 mph 18.4 mph N/A   Overcast
5:34 PM -0.4 °F -19.2 °F -2.2 °F 92% 29.89 in 4.0 mi NNW 13.8 mph 23.0 mph N/A   Overcast
5:54 PM -0.4 °F -17.6 °F -4.0 °F 85% 29.92 in 5.0 mi NNW 11.5 mph 26.5 mph N/A   Overcast
6:14 PM -2.2 °F -20.7 °F -5.8 °F 85% 29.93 in 7.0 mi North 12.7 mph 23.0 mph N/A   Scattered Clouds
6:34 PM -2.2 °F -18.0 °F -5.8 °F 85% 29.96 in 5.0 mi NNW 9.2 mph - N/A   Scattered Clouds
6:54 PM -2.2 °F -19.9 °F -5.8 °F 85% 29.97 in 5.0 mi NNW 11.5 mph 18.4 mph N/A   Scattered Clouds
7:14 PM -2.2 °F -18.9 °F -5.8 °F 85% 29.99 in 7.0 mi NNW 10.4 mph 23.0 mph N/A   Scattered Clouds
7:34 PM -2.2 °F -19.9 °F -7.6 °F 78% 30.01 in 7.0 mi NNW 11.5 mph 21.9 mph N/A   Scattered Clouds
7:54 PM -4.0 °F -22.1 °F -7.6 °F 85% 30.03 in 7.0 mi NNW 11.5 mph 18.4 mph N/A   Scattered Clouds
8:14 PM -4.0 °F -23.0 °F -7.6 °F 85% 30.04 in 10.0 mi NNW 12.7 mph 17.3 mph N/A   Clear
8:34 PM -4.0 °F -20.2 °F -7.6 °F 85% 30.06 in 10.0 mi NNW 9.2 mph 16.1 mph N/A   Clear
8:54 PM -4.0 °F -19.0 °F -7.6 °F 85% 30.07 in 10.0 mi NNW 8.1 mph 17.3 mph N/A   Clear
9:14 PM -5.8 °F -22.4 °F -9.4 °F 84% 30.08 in 10.0 mi NNW 9.2 mph 18.4 mph N/A   Clear
9:34 PM -5.8 °F -22.4 °F -9.4 °F 84% 30.09 in 10.0 mi NNW 9.2 mph - N/A   Clear
9:54 PM -5.8 °F -19.9 °F -9.4 °F 84% 30.10 in 10.0 mi NNW 6.9 mph - N/A   Clear
10:14 PM -5.8 °F -19.9 °F -9.4 °F 84% 30.12 in 10.0 mi NNW 6.9 mph - N/A   Clear
10:34 PM -7.6 °F -20.6 °F -9.4 °F 92% 30.13 in 10.0 mi NW 5.8 mph - N/A   Clear
10:54 PM -7.6 °F -22.1 °F -11.2 °F 84% 30.13 in 10.0 mi NW 6.9 mph - N/A   Clear
11:14 PM -7.6 °F -23.4 °F -11.2 °F 84% 30.13 in 10.0 mi NW 8.1 mph - N/A   Clear
11:34 PM -7.6 °F -22.1 °F -11.2 °F 84% 30.14 in 10.0 mi NW 6.9 mph - N/A   Clear
11:54 PM -7.6 °F -20.6 °F -11.2 °F 84% 30.15 in 10.0 mi NNW 5.8 mph - N/A   Scattered Clouds